Flag for Japan Weather past 2 weeks in Sendai, Japan

Now
55 °F

Passing clouds.


Feels Like: 53 °F
Forecast: 44 / 66 °F
Wind: 10 mph from Southwest

Location: Sendai Airport

Current Time: Apr 18, 2015 at 11:12:36 PM

Latest Report: Apr 18, 2015 at 9:00 PM


Visibility: N/A

Pressure: 29.98 "Hg

Humidity: 41%

Dew point: 32 °F

Location of SendaiLocation

Historic Weather in Sendai — Graph

°F

Sendai temperature yesterday

Maximum temperature yesterday: 59 °F (at 11:00 AM)
Minimum temperature yesterday: 50 °F (at 6:00 AM)
Average temperature yesterday: 55 °F

Past Weeks' High & Low Weather Summary

 TemperatureHumidityPressure
High70 °F (Apr 18, 1:00 PM)100% (Apr 5, 3:00 PM)30.45 "Hg (Apr 5, 3:00 PM)
Low34 °F (Apr 9, 6:00 AM)17% (Apr 18, 1:00 PM)29.50 "Hg (Apr 15, 3:00 PM)
Average50 °F74%30.07 "Hg
* Reported Apr 3 9:00 PM — Apr 18 9:00 PM, Sendai, Weather by CustomWeather, © 2015

Note: Actual official high and low records may vary slightly from our data, if they occured in-between our weather recording intervals... More about our weather records

Advertising

Sendai weather history for previous 24 hours

 ConditionsComfort  
Time TempWeatherWind HumidityBarometerVisibility
9:00 PM
Sat, Apr 18
55 °FPassing clouds.10 mph41%29.98 "HgN/A
8:00 PM55 °FPassing clouds.3 mph41%29.98 "HgN/A
7:00 PM55 °FPassing clouds.8 mph38%29.95 "HgN/A
6:00 PM59 °FScattered clouds.15 mph34%29.92 "HgN/A
5:00 PM63 °FPartly sunny.24 mph25%29.92 "HgN/A
4:00 PM64 °FPartly sunny.30 mph21%29.89 "HgN/A
3:00 PM68 °FPassing clouds.31 mph17%29.86 "HgN/A
2:00 PM68 °FPassing clouds.29 mph18%29.86 "HgN/A
1:00 PM70 °FPassing clouds.24 mph17%29.86 "HgN/A
12:00 PM68 °FPassing clouds.16 mph23%29.89 "HgN/A
11:47 AM66 °FPassing clouds.14 mph26%29.89 "HgN/A
11:00 AM64 °FPassing clouds.9 mph24%29.92 "HgN/A
10:00 AM61 °FSunny.13 mph36%29.95 "Hg10 mi
9:00 AM57 °FPassing clouds.12 mph36%29.98 "HgN/A
8:00 AM52 °FPassing clouds.6 mph47%29.98 "HgN/A
7:00 AM50 °FSunny.6 mph54%29.98 "Hg10 mi
6:00 AM46 °FPassing clouds.3 mph66%30.01 "HgN/A
Weather by CustomWeather, © 2015

See weather overviewHow to use our weather pages